TimeCDT,TemperatureF,Dew PointF,Humidity,Sea Level PressureIn,VisibilityMPH,Wind Direction,Wind SpeedMPH,Gust SpeedMPH,PrecipitationIn,Events,Conditions,WindDirDegrees,DateUTC
12:53 AM,75.0,66.9,76,29.85,10.0,South,10.4,-,N/A,,Clear,180,2013-05-20 05:53:00
1:53 AM,73.9,66.9,79,29.84,10.0,South,10.4,-,N/A,,Clear,180,2013-05-20 06:53:00
2:53 AM,73.4,68.0,83,29.86,10.0,South,13.8,19.6,N/A,,Clear,180,2013-05-20 07:53:00
3:53 AM,73.0,68.0,84,29.85,10.0,South,11.5,-,N/A,,Clear,180,2013-05-20 08:53:00
4:53 AM,73.0,68.0,84,29.85,10.0,South,13.8,19.6,N/A,,Clear,180,2013-05-20 09:53:00
5:53 AM,73.4,68.0,83,29.89,9.0,SSW,6.9,-,N/A,,Clear,200,2013-05-20 10:53:00
6:53 AM,73.4,69.8,88,29.91,8.0,South,4.6,-,N/A,,Mostly Cloudy,190,2013-05-20 11:53:00
7:03 AM,73.4,69.8,88,29.91,8.0,South,6.9,-,N/A,,Mostly Cloudy,190,2013-05-20 12:03:00
7:21 AM,73.4,69.8,88,29.91,8.0,South,8.1,-,N/A,,Overcast,180,2013-05-20 12:21:00
7:53 AM,75.0,70.0,84,29.90,9.0,SSW,11.5,18.4,N/A,,Mostly Cloudy,200,2013-05-20 12:53:00
8:53 AM,75.9,70.0,82,29.92,10.0,SSW,9.2,17.3,N/A,,Scattered Clouds,200,2013-05-20 13:53:00
9:27 AM,78.8,69.8,74,29.92,10.0,SSW,8.1,-,N/A,,Mostly Cloudy,210,2013-05-20 14:27:00
9:38 AM,78.8,71.6,78,29.92,10.0,SW,12.7,19.6,N/A,,Scattered Clouds,220,2013-05-20 14:38:00
9:53 AM,78.8,69.8,74,29.92,10.0,SSW,12.7,20.7,N/A,,Scattered Clouds,200,2013-05-20 14:53:00
10:53 AM,78.1,69.1,74,29.89,10.0,SSW,12.7,20.7,N/A,,Overcast,200,2013-05-20 15:53:00
11:53 AM,79.0,68.0,69,29.90,10.0,SSW,10.4,-,N/A,,Overcast,200,2013-05-20 16:53:00
12:53 PM,82.0,68.0,62,29.89,10.0,SSW,8.1,-,N/A,,Overcast,210,2013-05-20 17:53:00
1:53 PM,86.0,68.0,55,29.88,10.0,SW,11.5,-,N/A,,Partly Cloudy,220,2013-05-20 18:53:00
2:53 PM,87.1,64.9,48,29.86,10.0,SSW,13.8,20.7,N/A,,Clear,210,2013-05-20 19:53:00
3:53 PM,88.0,66.0,48,29.83,10.0,SSW,16.1,23.0,N/A,,Clear,200,2013-05-20 20:53:00
4:53 PM,84.9,69.1,59,29.81,10.0,SSE,12.7,20.7,N/A,,Scattered Clouds,160,2013-05-20 21:53:00
5:53 PM,84.0,66.9,56,29.79,10.0,South,12.7,23.0,N/A,,Partly Cloudy,170,2013-05-20 22:53:00
6:53 PM,82.9,66.0,56,29.77,10.0,South,12.7,-,N/A,,Partly Cloudy,180,2013-05-20 23:53:00
7:53 PM,82.0,66.0,58,29.78,10.0,South,12.7,20.7,N/A,,Clear,170,2013-05-21 00:53:00
8:53 PM,80.1,68.0,67,29.79,10.0,South,11.5,-,N/A,,Clear,170,2013-05-21 01:53:00
9:53 PM,79.0,68.0,69,29.82,10.0,South,10.4,19.6,N/A,,Clear,170,2013-05-21 02:53:00
10:53 PM,80.1,66.9,64,29.83,10.0,South,16.1,26.5,N/A,,Partly Cloudy,180,2013-05-21 03:53:00
11:53 PM,79.0,68.0,69,29.83,10.0,South,11.5,-,N/A,,Clear,170,2013-05-21 04:53:00